Terminal Aerodrome Forecast
Issued by NWS

Home | Current Version | Previous Version | Text Only | Print | Product List | Glossary On
Versions: 1 2 3 4 5 6 7 8 9 10 11 12 13 14 15 16 17 18 19 20 21 22 23 24 25 26 27
000
FTUS46 KMTR 011400 AAA
TAFSFO
TAF AMD
KSFO 011455Z 0115/0218 30006KT P6SM FEW005 SCT200
     FM011900 30018KT P6SM FEW008 FEW200
     FM020600 30010KT P6SM FEW008 FEW200=

USA.gov is the U.S. government's official web portal to all federal, state and local government web resources and services.